INMARSAT 3-F2 1 24307U 96053A 12035.10851758 -.00000121 00000-0 10000-3 0 838 2 24307 000.1138 039.1851 0005977 268.7420 209.3166 01.00272783 56430 INMARSAT 3-F3 1 24674U 96070A 12034.54059090 .00000043 00000-0 10000-3 0 1125 2 24674 000.1299 041.8886 0005791 275.8289 188.1229 01.00274748 55389 INMARSAT 3-F4 1 24819U 97027A 12037.37752345 -.00000287 00000-0 10000-3 0 9754 2 24819 001.9350 071.8247 0005050 237.4496 268.5401 01.00269955 53830 INMARSAT 3-F5 1 25153U 98006B 12036.98673137 .00000140 00000-0 10000-3 0 9668 2 25153 000.4164 356.3114 0003703 308.7829 210.3615 01.00271903 51339 ARTEMIS 1 26863U 01029A 12036.97751157 .00000120 00000-0 10000-3 0 2452 2 26863 009.6459 056.1485 0003029 287.2973 165.3432 01.00274130 39814 MTSAT-1R 1 28622U 05006A 12032.53531311 -.00000276 00000-0 10000-3 0 6145 2 28622 000.0368 266.9752 0000550 067.9401 128.9585 01.00274142 25379 ANIK F1-R 1 28868U 05036A 12034.24219595 -.00000071 00000-0 10000-3 0 9402 2 28868 000.0144 006.9036 0001711 274.5002 191.2958 01.00272018 23536 GALAXY 15 1 28884U 05041A 12036.12151964 .00000080 00000-0 10000-3 0 2851 2 28884 000.0125 015.9030 0002640 298.7700 090.7319 01.00271737 23140 INMARSAT 4-F2 1 28899U 05044A 12036.80347368 .00000140 00000-0 10000-3 0 765 2 28899 002.2137 337.8036 0015035 341.7202 130.0148 01.00274941 22926 MTSAT-2 1 28937U 06004A 12036.67904065 -.00000242 00000-0 10000-3 0 1027 2 28937 000.0152 154.7288 0002153 181.5465 188.4734 01.00272988 21897 INMARSAT 4-F3 1 33278U 08039A 12037.34742086 -.00000137 00000-0 10000-3 0 5486 2 33278 003.0015 341.7678 0002540 322.5339 218.9939 01.00271438 12749 QZS-1 (MICHIBIKI) 1 37158U 10045A 12034.49113596 -.00000109 00000-0 10000-3 0 2552 2 37158 040.7482 187.8134 0749220 270.0374 348.4478 01.00272712 5139 GSAT 8 1 37605U 11022A 12036.89094387 .00000084 00000-0 10000-3 0 1478 2 37605 000.1047 261.6996 0006932 007.2164 242.3205 01.00273044 2656